Starlink 34921

operational
NORAD ID: 65893 Int'l Des: 2025-224 Owner: SPXS Country: US Constellation: starlink
LEOCIRCULAR

About Starlink 34921

Description loading...

Live Position

Loading 3D Globe...

Upcoming Passes

Altitude History

Altitude vs Time

uPlot chart will show altitude changes over time

Two-Line Element Set

1 65893U 25224M 26047.60705889 .00037165 00000-0 12608-2 0 9999
2 65893 53.1580 109.4733 0001483 62.9320 297.1832 15.30195747 21647
Epoch: Feb 16, 2026 • Age: 9 hours

Current Status

Altitude 494.6 km
Velocity 7.62 km/s
Sub-Earth Point -53.26°S, 126.35°W
Launch Date Oct 7, 2025
Age 0.3 years
Type internet

Technical Details

Classification Payload
Mass 575.00 kg
Dry Mass 530.00 kg
Total Mass 575.00 kg
Length 0.30 m
Diameter 4.10 m
Span 29.00 m
Shape Box + pan
Manufacturer SPXS
Bus Type Starlink V2MO
Phase Status In Orbit
Owner/State SPXS/US

Large Constellations

Loading constellations...